User: anonymous   Login
Location: Brno
(49.2000°N, 16.6330°E)
Time: 17:48:32
(UTC+02:00)
Language:

Iridium 2 - Orbit

View from above orbital plane
View from above orbital plane
View from above satellite
View from above satellite

Ground track
Ground track

The orbit data is extracted from the following two-line orbital elements,

1 25527U 98066A   17177.69026757 +.00000768 +00000-0 +37367-4 0  9996
2 25527 085.5293 026.6456 0011335 062.6387 297.6005 15.16555907019800
Epoch (UTC): 26 June 2017 16:33:59
Eccentricity: 0.0011335
inclination: 85.5293°
perigee height: 508 km
apogee height: 524 km
right ascension of ascending node: 26.6456°
argument of perigee: 62.6387°
revolutions per day: 15.16555907
mean anomaly at epoch: 297.6005°
orbit number at epoch: 1980

The dashed part of the orbit path shows where the satellite is in the earth's shadow,  

DLR